Regional Weather Roundup
Issued by NWS

Home | Current Version | Previous Version | Text Only | Print | Product List | Glossary On
Versions: 1 2 3 4 5 6 7 8 9 10 11 12 13 14 15 16 17 18 19 20 21 22 23 24 25 26 27 28
000
ASUS44 KBMX 260810
RWRAL

ALABAMA REGIONAL WEATHER ROUNDUP
NATIONAL WEATHER SERVICE BIRMINGHAM AL
300 AM CDT SUN JUN 26 2016

NOTE: "FAIR" INDICATES FEW OR NO CLOUDS BELOW 12,000 FEET
WITH NO SIGNIFICANT WEATHER AND/OR OBSTRUCTIONS TO VISIBILITY.

THE REMARK "TC" DENOTES TEMPERATURE IN DEGREES CELSIUS.

ALZ001>011-014-016>018-020-260900-
NORTH ALABAMA

CITY           SKY/WX    TMP DP  RH WIND       PRES   REMARKS
MUSCLE SHOALS  CLEAR     73  70  90 CALM      30.10R
HUNTSVILLE     CLOUDY    75  68  78 CALM      30.09R
DECATUR        CLOUDY    73  68  84 CALM      30.09S
HALEYVILLE     FAIR      73  72  96 CALM      30.12R
GADSDEN        CLOUDY    74  71  91 CALM      30.09S
$$

ALZ012-013-022-023-030>036-040>044-260900-
WEST CENTRAL ALABAMA

CITY           SKY/WX    TMP DP  RH WIND       PRES   REMARKS
TUSCALOOSA     CLEAR     76  74  93 CALM      30.06R
$$

ALZ015-024>027-033>036-040>044-260900-
CENTRAL ALABAMA

CITY           SKY/WX    TMP DP  RH WIND       PRES   REMARKS
BIRMINGHAM     CLOUDY    77  73  87 CALM      30.10R
MONTGOMERY     CLEAR     78  72  81 S5        30.05S
SHELBY CO ARPT MOCLDY    77  73  87 CALM      30.08R
MAXWELL AFB    CLEAR     77  75  91 SW2       30.04S
GREENVILLE     FAIR      77  71  82 CALM      30.06S
$$

ALZ019-021-028-029-037-038-045>048-260900-
EAST CENTRAL ALABAMA

CITY           SKY/WX    TMP DP  RH WIND       PRES   REMARKS
ANNISTON       PTCLDY    75  71  87 SE3       30.07F
ALEXANDER CITY CLEAR     75  75 100 CALM      30.07F
AUBURN         CLEAR     78  74  87 CALM      30.09S
$$

ALZ051>064-260900-
SOUTHWEST ALABAMA

CITY           SKY/WX    TMP DP  RH WIND       PRES   REMARKS
MOBILE         CLEAR     77  73  87 CALM      30.07S
BROOKLEY FIELD CLEAR     77  74  90 CALM      30.07F
EVERGREEN      CLEAR     75  72  90 CALM      30.07F
$$

ALZ049-050-065>069-260900-
SOUTHEAST ALABAMA

CITY           SKY/WX    TMP DP  RH WIND       PRES   REMARKS
DOTHAN         CLEAR     78  74  87 SW8       30.10S
OZARK          CLEAR     77  75  91 SW2       30.07S
TROY           PTCLDY    75  74  96 CALM      30.07F
EUFAULA        FAIR      73  69  87 CALM      30.04F
$$




USA.gov is the U.S. government's official web portal to all federal, state and local government web resources and services.